When you browse on this site, cookies collect data to enhance your experience and personalize the content and advertising you see.
Visit our Privacy Policy to learn more. By continuing to use the site, you agree to this use of cookies and data.
  • Em Portugal
  • Lista de países
  • Para 7 dias
  • Temperatura da água
  • Mapas de satélite
  • Mapa do tempo
  • Widgets de tempo
  • user-avatar
    Iniciar Sessão

    Previsão horária em Klagenfurt

    Hoje, 23 Maio, Quinta-feira

    Tempo Temperatura Precipitação Vento Pressão Humidade
    00:00 +9°C° 0 mm 1 m/s 689 mmHg 88%
    01:00 +8°C° 0 mm 1 m/s 689 mmHg 89%
    02:00 +8°C° 0 mm 1 m/s 689 mmHg 88%
    03:00 +7°C° 0 mm 1 m/s 690 mmHg 88%
    04:00 +7°C° 0 mm 1 m/s 690 mmHg 87%
    05:00 +9°C° 0 mm 1 m/s 690 mmHg 83%
    06:00 +10°C° 0 mm 1 m/s 690 mmHg 78%
    07:00 +11°C° 0 mm 1 m/s 690 mmHg 74%
    08:00 +14°C° 0 mm 1 m/s 691 mmHg 64%
    09:00 +18°C° 0 mm 1 m/s 691 mmHg 54%
    10:00 +19°C° 0 mm 0 m/s 692 mmHg 44%
    11:00 +20°C° 0 mm 0 m/s 692 mmHg 44%
    12:00 +21°C° 0 mm 0 m/s 692 mmHg 43%
    13:00 +21°C° 0 mm 0 m/s 692 mmHg 43%
    14:00 +22°C° 0.3 mm 1 m/s 691 mmHg 47%
    15:00 +21°C° 0.3 mm 1 m/s 690 mmHg 51%
    16:00 +20°C° 0.3 mm 1 m/s 690 mmHg 56%
    17:00 +18°C° 0.4 mm 1 m/s 690 mmHg 65%
    18:00 +15°C° 0.4 mm 1 m/s 689 mmHg 74%
    19:00 +14°C° 0.4 mm 1 m/s 689 mmHg 83%
    20:00 +12°C° 0.1 mm 0 m/s 689 mmHg 86%
    21:00 +10°C° 0.1 mm 0 m/s 690 mmHg 88%
    22:00 +9°C° 0.1 mm 0 m/s 690 mmHg 91%
    23:00 +8°C° 0 mm 0 m/s 690 mmHg 92%

    Amanhã, 24 Maio, Sexta-feira

    Tempo Temperatura Precipitação Vento Pressão Humidade
    00:00 +8°C° 0 mm 0 m/s 690 mmHg 93%
    01:00 +8°C° 0 mm 0 m/s 690 mmHg 94%
    02:00 +7°C° 0 mm 0 m/s 689 mmHg 95%
    03:00 +7°C° 0 mm 0 m/s 689 mmHg 95%
    04:00 +7°C° 0 mm 0 m/s 689 mmHg 95%
    05:00 +9°C° 0 mm 0 m/s 689 mmHg 91%
    06:00 +10°C° 0 mm 0 m/s 689 mmHg 86%
    07:00 +12°C° 0 mm 0 m/s 690 mmHg 82%
    08:00 +14°C° 0 mm 0 m/s 690 mmHg 73%
    09:00 +17°C° 0 mm 0 m/s 690 mmHg 63%
    10:00 +19°C° 0 mm 0 m/s 690 mmHg 54%
    11:00 +22°C° 0.1 mm 1 m/s 690 mmHg 51%
    12:00 +22°C° 0.1 mm 1 m/s 690 mmHg 49%
    13:00 +23°C° 0.1 mm 1 m/s 690 mmHg 47%
    14:00 +22°C° 0.3 mm 1 m/s 689 mmHg 50%
    15:00 +22°C° 0.3 mm 1 m/s 689 mmHg 53%
    16:00 +21°C° 0.3 mm 1 m/s 688 mmHg 55%
    17:00 +19°C° 0.4 mm 1 m/s 688 mmHg 65%
    18:00 +16°C° 0.4 mm 1 m/s 688 mmHg 75%
    19:00 +15°C° 0.4 mm 1 m/s 687 mmHg 85%
    20:00 +12°C° 0.2 mm 0 m/s 688 mmHg 88%
    21:00 +11°C° 0.2 mm 0 m/s 688 mmHg 90%
    22:00 +10°C° 0.2 mm 0 m/s 688 mmHg 93%
    23:00 +10°C° 0 mm 0 m/s 688 mmHg 94%

    Depois de amanhã, 25 Maio, Sábado

    Tempo Temperatura Precipitação Vento Pressão Humidade
    00:00 +9°C° 0 mm 0 m/s 688 mmHg 94%
    01:00 +9°C° 0 mm 0 m/s 688 mmHg 95%
    02:00 +8°C° 0 mm 0 m/s 688 mmHg 95%
    03:00 +8°C° 0 mm 0 m/s 687 mmHg 95%
    04:00 +8°C° 0 mm 0 m/s 687 mmHg 96%
    05:00 +10°C° 0 mm 0 m/s 688 mmHg 91%
    06:00 +11°C° 0 mm 0 m/s 688 mmHg 87%
    07:00 +13°C° 0 mm 0 m/s 689 mmHg 82%
    08:00 +16°C° 0 mm 0 m/s 689 mmHg 73%
    09:00 +18°C° 0 mm 0 m/s 689 mmHg 63%
    10:00 +22°C° 0 mm 1 m/s 690 mmHg 54%
    11:00 +22°C° 0.4 mm 1 m/s 690 mmHg 56%
    12:00 +22°C° 0.4 mm 1 m/s 690 mmHg 58%
    13:00 +22°C° 0.4 mm 1 m/s 690 mmHg 60%
    14:00 +21°C° 1.2 mm 1 m/s 689 mmHg 65%
    15:00 +21°C° 1.2 mm 1 m/s 689 mmHg 71%
    16:00 +20°C° 1.2 mm 1 m/s 689 mmHg 76%
    17:00 +19°C° 0.9 mm 1 m/s 689 mmHg 80%
    18:00 +16°C° 0.9 mm 1 m/s 688 mmHg 84%
    19:00 +15°C° 0.9 mm 1 m/s 688 mmHg 88%
    20:00 +14°C° 0.1 mm 1 m/s 688 mmHg 90%
    21:00 +13°C° 0.1 mm 1 m/s 689 mmHg 92%
    22:00 +12°C° 0.1 mm 1 m/s 689 mmHg 93%
    23:00 +12°C° 0 mm 1 m/s 688 mmHg 94%

    26 Maio, Domingo

    Tempo Temperatura Precipitação Vento Pressão Humidade
    00:00 +11°C° 0 mm 1 m/s 688 mmHg 94%
    01:00 +11°C° 0 mm 1 m/s 688 mmHg 94%
    02:00 +10°C° 0 mm 1 m/s 688 mmHg 94%
    03:00 +10°C° 0 mm 1 m/s 688 mmHg 94%
    04:00 +9°C° 0 mm 1 m/s 687 mmHg 94%
    05:00 +11°C° 0 mm 1 m/s 688 mmHg 90%
    06:00 +12°C° 0 mm 0 m/s 688 mmHg 86%
    07:00 +14°C° 0 mm 0 m/s 689 mmHg 82%
    08:00 +16°C° 0 mm 0 m/s 689 mmHg 70%
    09:00 +19°C° 0 mm 0 m/s 690 mmHg 58%
    10:00 +22°C° 0 mm 0 m/s 690 mmHg 47%
    11:00 +24°C° 0 mm 1 m/s 690 mmHg 44%
    12:00 +25°C° 0 mm 1 m/s 690 mmHg 41%
    13:00 +26°C° 0 mm 1 m/s 690 mmHg 39%
    14:00 +25°C° 0.1 mm 1 m/s 690 mmHg 43%
    15:00 +24°C° 0.1 mm 1 m/s 690 mmHg 47%
    16:00 +23°C° 0.1 mm 2 m/s 689 mmHg 51%
    17:00 +21°C° 0.3 mm 1 m/s 689 mmHg 62%
    18:00 +19°C° 0.3 mm 1 m/s 689 mmHg 72%
    19:00 +16°C° 0.3 mm 1 m/s 688 mmHg 82%
    20:00 +15°C° 0.3 mm 1 m/s 688 mmHg 86%
    21:00 +14°C° 0.3 mm 1 m/s 688 mmHg 89%
    22:00 +11°C° 0.3 mm 0 m/s 688 mmHg 92%
    23:00 +12°C° 0.1 mm 1 m/s 688 mmHg 93%

    27 Maio, Segunda-feira

    Tempo Temperatura Precipitação Vento Pressão Humidade
    00:00 +12°C° 0.1 mm 1 m/s 688 mmHg 93%
    01:00 +12°C° 0.1 mm 1 m/s 688 mmHg 94%
    02:00 +12°C° 0.5 mm 1 m/s 687 mmHg 94%
    03:00 +12°C° 0.5 mm 1 m/s 687 mmHg 95%
    04:00 +12°C° 0.5 mm 1 m/s 687 mmHg 95%
    05:00 +12°C° 2.2 mm 1 m/s 687 mmHg 96%
    06:00 +13°C° 2.2 mm 1 m/s 687 mmHg 96%
    07:00 +13°C° 2.2 mm 1 m/s 687 mmHg 97%
    08:00 +13°C° 3.3 mm 1 m/s 687 mmHg 97%
    09:00 +13°C° 3.3 mm 1 m/s 687 mmHg 97%
    10:00 +13°C° 3.3 mm 1 m/s 686 mmHg 97%
    11:00 +13°C° 1.1 mm 1 m/s 686 mmHg 96%
    12:00 +12°C° 1.1 mm 0 m/s 686 mmHg 94%
    13:00 +12°C° 1.1 mm 0 m/s 686 mmHg 93%
    14:00 +13°C° 0.4 mm 0 m/s 686 mmHg 91%
    15:00 +13°C° 0.4 mm 0 m/s 686 mmHg 89%
    16:00 +14°C° 0.4 mm 0 m/s 685 mmHg 86%
    17:00 +13°C° 0.1 mm 0 m/s 685 mmHg 88%
    18:00 +13°C° 0.1 mm 0 m/s 685 mmHg 89%
    19:00 +13°C° 0.1 mm 0 m/s 684 mmHg 90%
    20:00 +12°C° 0 mm 0 m/s 684 mmHg 92%
    21:00 +11°C° 0 mm 0 m/s 684 mmHg 94%
    22:00 +10°C° 0 mm 0 m/s 684 mmHg 96%
    23:00 +11°C° 0 mm 1 m/s 683 mmHg 96%

    28 Maio, Terça-feira

    Tempo Temperatura Precipitação Vento Pressão Humidade
    00:00 +11°C° 0 mm 1 m/s 683 mmHg 96%
    01:00 +10°C° 0 mm 1 m/s 683 mmHg 96%
    02:00 +10°C° 0 mm 1 m/s 683 mmHg 96%
    03:00 +9°C° 0 mm 1 m/s 682 mmHg 96%
    04:00 +9°C° 0 mm 1 m/s 682 mmHg 95%
    05:00 +11°C° 0 mm 1 m/s 682 mmHg 91%
    06:00 +11°C° 0 mm 0 m/s 682 mmHg 86%
    07:00 +13°C° 0 mm 0 m/s 683 mmHg 82%
    08:00 +15°C° 0.1 mm 0 m/s 683 mmHg 75%
    09:00 +17°C° 0.1 mm 0 m/s 684 mmHg 68%
    10:00 +19°C° 0.1 mm 0 m/s 684 mmHg 60%
    11:00 +21°C° 0.8 mm 1 m/s 684 mmHg 64%
    12:00 +21°C° 0.8 mm 1 m/s 684 mmHg 68%
    13:00 +20°C° 0.8 mm 2 m/s 684 mmHg 72%
    14:00 +20°C° 1.3 mm 1 m/s 684 mmHg 74%
    15:00 +19°C° 1.3 mm 1 m/s 684 mmHg 76%
    16:00 +19°C° 1.3 mm 1 m/s 683 mmHg 78%
    17:00 +16°C° 0.9 mm 1 m/s 684 mmHg 82%
    18:00 +15°C° 0.9 mm 1 m/s 684 mmHg 87%
    19:00 +14°C° 0.9 mm 1 m/s 684 mmHg 92%
    20:00 +13°C° 1.9 mm 1 m/s 684 mmHg 94%
    21:00 +12°C° 1.9 mm 1 m/s 684 mmHg 95%
    22:00 +12°C° 1.9 mm 1 m/s 684 mmHg 97%
    23:00 +11°C° 4.1 mm 1 m/s 684 mmHg 97%
    Mostrar mais